Dewpoint
69 71 71 70 70 72 71 73 73 73 73 74 75 75 74 73 73 73 71 69 66 65 64 64 64 64 59 59 60 63 62 61 59 57 59 61 63 61 60 61 60 62 54
66 68 70 70 71 70 71 72 73 73 73 73 74 75 75 74 73 73 71 68 68 66 64 63 63 58 64 63 60 65 64 63 60 61 60 58 60 63 61 62 57 56 57
68 68 69 70 70 70 71 72 73 74 74 73 73 74 75 74 74 73 72 70 68 67 65 63 62 61 62 58 60 63 62 60 61 59 57 57 58 58 59 60 59 59 52
70 69 71 71 71 71 72 73 73 75 75 75 75 75 74 75 74 73 72 71 69 67 65 63 62 61 61 62 61 62 61 61 60 59 56 55 55 59 57 53 53 54 52
71 71 71 73 73 73 74 75 75 76 75 75 75 75 74 74 74 74 73 72 70 68 65 63 61 62 61 61 56 61 62 58 57 55 54 53 53 52 53 52 51 51 55
71 71 73 74 74 75 75 75 76 76 75 75 75 75 74 73 70 69 71 68 67 66 66 64 60 61 60 61 60 61 62 62 62 53 52 53 57 53 52 49 50 50 47
75 75 75 76 76 76 76 76 76 77 76 76 76 76 75 75 67 68 68 68 67 64 63 63 60 53 62 62 61 60 60 62 62 63 60 58 58 55 57 56 57 54 50
75 75 76 76 76 76 76 76 77 77 77 77 76 76 76 75 66 66 68 69 68 66 65 63 62 60 63 62 61 60 59 57 59 55 60 61 58 58 58 57 58 58 53
75 75 76 76 77 77 76 77 77 76 76 76 76 76 76 75 64 65 67 69 68 67 65 63 64 62 63 62 61 61 60 58 59 61 61 60 59 58 57 50 48 46 44
74 73 75 75 75 75 76 77 77 77 76 75 75 76 73 75 64 64 65 70 69 68 64 65 62 62 60 60 61 60 59 58 58 58 58 56 57 57 58 57 52 47 47
73 73 73 72 73 75 75 75 75 75 76 76 75 75 75 74 71 62 61 68 69 67 65 64 64 60 57 58 58 60 59 60 60 59 56 51 52 53 53 56 58 51 48
74 71 69 70 70 71 74 75 75 74 73 73 74 74 73 74 65 60 60 62 66 67 66 66 65 58 57 57 57 58 57 59 57 55 52 49 50 51 53 56 59 57 56
69 66 67 69 70 72 73 73 72 73 71 71 70 71 72 71 69 60 59 60 61 65 66 65 61 56 53 55 54 55 57 56 56 53 50 49 49 50 57 58 59 61 61
66 67 68 69 69 71 70 71 71 71 70 68 69 69 70 70 68 66 62 61 59 62 63 64 61 57 57 55 55 55 54 57 56 55 51 50 52 54 56 56 55 56 55
67 67 68 67 68 69 70 69 69 73 70 69 69 68 69 70 68 63 62 62 62 61 61 61 59 58 57 56 55 54 54 57 56 55 53 54 55 54 54 56 56 55 53
67 64 64 66 66 67 67 68 61 59 56 55 53 61 69 62 54 52 51 52 53 53 59 59 58 57 56 57 54 53 54 57 57 56 56 55 55 54 53 56 56 53 51
68 68 66 65 66 67 67 67 67 64 54 51 49 50 49 54 50 48 49 49 50 52 60 59 58 58 57 56 54 52 51 54 60 58 58 57 56 56 54 53 53 53 53
68 60 67 66 66 66 66 66 66 66 66 65 57 53 50 48 47 46 46 48 52 55 60 61 59 58 58 57 55 53 52 53 55 55 55 55 55 55 54 54 54 53 53
66 66 65 65 64 62 64 63 62 63 63 63 63 59 57 47 46 45 45 61 59 57 60 61 62 61 60 60 57 56 55 53 54 54 53 53 53 55 54 54 54 50 52
62 61 60 60 60 60 59 59 59 59 59 60 60 60 62 59 61 62 55 59 62 61 61 61 62 62 61 61 61 60 59 54 53 52 52 52 52 51 51 50 53 52 53
59 59 60 59 59 59 59 59 59 59 59 58 59 59 54 64 64 64 64 60 61 63 62 62 63 63 63 63 62 61 59 59 53 54 52 53 52 50 50 50 49 52 51
59 58 59 59 59 59 58 58 59 58 58 58 59 59 52 61 64 64 64 63 62 63 63 62 61 62 62 61 62 61 60 58 56 54 54 53 54 53 54 51 49 50 52
58 59 59 59 59 57 57 58 58 58 58 58 59 59 60 61 62 63 63 64 63 62 63 64 62 62 62 62 62 60 59 59 59 57 55 55 54 54 53 52 51 50 52
59 60 59 58 57 58 57 57 58 56 58 59 59 60 60 60 60 62 62 62 64 63 64 64 65 63 63 63 62 61 60 60 59 57 57 57 56 54 55 55 52 53 52
59 59 58 58 56 57 58 57 57 57 57 58 59 60 60 60 61 61 62 62 62 62 62 63 63 63 64 63 62 62 57 47 57 54 58 58 56 55 53 53 53 52 53
57 58 58 56 57 57 57 57 57 56 56 57 58 60 61 60 61 62 63 62 61 61 62 63 62 62 62 63 62 57 45 42 51 49 58 59 58 56 54 53 53 52 53
Lifted_Index
-2 -3 -4 -5 -5 -5 -6 -6 -6 -6 -6 -6 -6 -7 -6 -6 -5 -4 -3 -2 -0 1 2 3 4 4 4 4 3 2 1 1 1 1 2 2 3 4 5 6 6 6 7
-2 -3 -4 -5 -5 -5 -6 -6 -6 -6 -6 -6 -6 -7 -7 -6 -5 -5 -3 -2 -1 0 1 2 4 4 5 4 4 2 2 2 1 1 1 2 3 5 6 6 6 7 7
-3 -3 -4 -5 -5 -6 -6 -6 -7 -7 -6 -6 -6 -7 -7 -7 -6 -5 -4 -3 -2 -1 -0 1 2 4 5 5 4 3 3 2 2 2 2 2 4 6 7 7 7 7 8
-4 -4 -5 -5 -6 -6 -6 -6 -7 -7 -7 -7 -7 -7 -7 -7 -6 -6 -5 -4 -3 -2 -2 -1 1 3 5 5 5 4 4 4 3 3 3 4 5 7 7 8 8 8 8
-5 -5 -6 -6 -7 -7 -7 -7 -7 -7 -7 -7 -7 -7 -7 -7 -7 -6 -5 -4 -3 -2 -2 -2 -1 2 4 6 6 5 5 5 4 4 5 5 7 8 8 8 8 9 9
-6 -7 -7 -7 -8 -8 -8 -8 -8 -8 -8 -8 -8 -8 -8 -7 -7 -6 -5 -3 -2 -1 -1 -1 -1 0 3 6 7 6 6 5 5 5 5 6 7 8 9 9 9 9 9
-8 -8 -8 -8 -8 -8 -8 -8 -8 -9 -8 -8 -8 -8 -8 -7 -6 -5 -4 -2 -1 -0 0 -1 -2 -1 1 4 6 6 6 5 5 5 5 6 7 8 9 9 8 9 9
-8 -8 -8 -8 -8 -8 -8 -8 -8 -9 -9 -9 -9 -8 -8 -8 -7 -5 -4 -2 -2 -1 -0 -1 -2 -2 1 3 4 5 5 5 5 5 5 5 7 8 8 9 9 9 9
-8 -8 -8 -8 -8 -8 -8 -8 -8 -8 -8 -8 -8 -8 -8 -7 -7 -6 -4 -4 -3 -2 -2 -2 -3 -2 -0 2 3 4 4 5 6 6 6 6 7 8 9 9 9 9 9
-7 -7 -7 -7 -7 -7 -7 -7 -8 -8 -7 -7 -7 -7 -7 -7 -7 -6 -5 -5 -4 -3 -3 -3 -3 -3 -1 1 3 4 4 5 5 6 6 7 7 8 9 8 8 9 9
-6 -6 -5 -5 -5 -5 -6 -6 -7 -6 -6 -7 -7 -7 -7 -6 -6 -6 -5 -5 -4 -4 -4 -3 -3 -3 -2 1 3 4 4 5 5 5 6 7 7 8 8 7 7 8 8
-5 -4 -3 -3 -3 -4 -5 -6 -6 -5 -5 -5 -5 -6 -6 -5 -5 -5 -5 -5 -4 -4 -4 -4 -4 -3 -2 1 4 5 5 5 5 5 6 7 7 7 7 6 7 7 7
-3 -3 -2 -2 -3 -4 -5 -5 -5 -5 -5 -4 -4 -4 -4 -5 -4 -4 -4 -4 -4 -4 -4 -3 -3 -3 -2 0 3 6 6 6 5 6 6 7 7 7 6 6 6 6 6
-2 -2 -2 -3 -3 -3 -4 -4 -5 -5 -4 -4 -4 -4 -4 -4 -4 -4 -4 -4 -4 -3 -3 -3 -3 -3 -2 0 3 6 7 6 6 6 7 7 7 6 5 5 5 5 6
-2 -2 -2 -2 -2 -2 -3 -3 -4 -4 -4 -3 -3 -3 -3 -3 -3 -3 -3 -3 -3 -3 -3 -3 -3 -2 -2 -1 2 5 7 7 7 6 6 6 6 6 5 5 5 5 6
-2 -2 -2 -2 -2 -2 -2 -2 -3 -3 -3 -2 -2 -2 -2 -2 -3 -3 -3 -3 -3 -3 -3 -2 -2 -2 -2 -1 1 4 6 7 6 6 6 6 6 5 5 5 5 5 6
-2 -2 -2 -2 -2 -2 -2 -2 -2 -2 -2 -2 -1 -1 -1 -1 -2 -2 -2 -2 -2 -2 -2 -2 -2 -2 -2 -2 -0 2 5 6 6 6 5 5 5 5 5 5 5 5 6
-2 -2 -2 -1 -1 -1 -1 -1 -1 -1 -1 -1 -1 -1 -0 -0 -0 -1 -1 -2 -2 -2 -2 -2 -2 -2 -2 -2 -2 -0 2 4 6 6 6 5 5 5 5 5 5 5 5
-1 -1 -1 -0 0 0 1 1 1 1 0 0 -0 -0 0 0 1 0 -1 -1 -1 -2 -2 -2 -2 -2 -2 -2 -2 -1 -0 2 4 6 6 6 6 5 6 5 5 5 5
-0 0 1 1 2 2 2 3 3 3 2 2 1 0 0 1 1 1 -0 -1 -1 -1 -1 -1 -1 -2 -2 -2 -2 -2 -1 -0 2 4 6 6 6 6 6 7 6 5 5
1 2 2 3 3 3 4 4 4 4 3 3 2 1 1 1 1 1 0 -0 -0 -0 -1 -1 -1 -1 -1 -1 -1 -2 -2 -1 -0 2 4 5 6 6 7 7 7 6 5
3 3 4 4 4 4 5 5 5 4 4 4 3 2 2 2 2 1 1 0 -0 -0 -0 -0 -1 -1 -1 -1 -1 -1 -2 -2 -1 0 2 4 6 7 8 8 7 6 5
4 4 4 5 5 5 5 5 5 5 4 4 3 3 3 3 3 2 2 1 0 0 0 -0 -1 -1 -1 -1 -1 -1 -1 -2 -1 -1 1 3 6 7 7 8 7 6 5
5 5 5 5 5 5 5 5 4 4 4 3 3 2 3 4 4 3 3 2 1 1 0 0 -0 -1 -1 -1 -0 -0 -1 -1 -1 -1 0 3 5 6 7 7 7 6 5
5 5 5 5 5 5 5 4 4 4 3 3 2 2 3 4 4 4 3 3 1 0 -0 -0 -0 -0 -0 -0 0 0 0 0 0 -0 1 3 4 5 6 7 6 5 5
5 5 5 5 5 5 4 4 4 4 3 3 2 2 3 4 4 4 3 2 1 0 -0 -0 -0 -0 -0 0 1 1 1 1 1 1 1 3 4 5 6 6 6 5 5